Regional Weather Roundup
Issued by NWS

Home | Current Version | Previous Version | Text Only | Print | Product List | Glossary On
Versions: 1 2 3 4 5 6 7 8 9 10 11 12 13 14 15 16 17 18 19 20 21 22 23 24 25 26 27 28 29 30 31 32 33 34 35 36 37 38 39 40 41 42 43 44 45 46 47 48 49 50
000
ASUS43 KMPX 281810
RWRMN
WEATHER ROUNDUP FOR MINNESOTA
NATIONAL WEATHER SERVICE TWIN CITIES/CHANHASSEN MN
1200 PM CST FRI NOV 28 2014


NOTE: "FAIR" INDICATES FEW OR NO CLOUDS BELOW 12,000 FEET WITH NO
SIGNIFICANT WEATHER AND/OR OBSTRUCTIONS TO VISIBILITY. N/A MEANS
CURRENT SKY AND/OR WEATHER CONDITIONS ARE NOT AVAILABLE.

MNZ060>063-068>070-281900-
   Twin Cities Metro

CITY           SKY/WX    TMP DP  RH WIND       PRES   REMARKS
TWIN CITIES    CLOUDY    18  11  74 SE8       29.94F WCI   8
6HR MIN TEMP:  12; 6HR MAX TEMP:  19;

ST PAUL        CLOUDY    20  12  71 SE9       29.96F WCI   9
CRYSTAL        CLOUDY    20  11  68 SE8       29.92F WCI  10
BLAINE         CLOUDY    21  14  73 SE8       29.94F WCI  12
LAKEVILLE      FAIR      19  12  73 SE7       29.91F WCI  10
EDEN PRAIRIE   CLOUDY    19  11  70 E8        29.92F WCI   9
6HR MIN TEMP:  13; 6HR MAX TEMP:  19;

SOUTH ST PAUL  CLOUDY    21  12  68 SE6       29.94F WCI  13
LAKE ELMO      CLOUDY    21  14  73 SE7       29.94F HAZE    WCI  13
$$
MNZ001>005-007-008-013>017-022>024-027-028-281900-
   Northwest Minnesota

CITY           SKY/WX    TMP DP  RH WIND       PRES   REMARKS
BEMIDJI        LGT SNOW  11   6  79 E7        29.87F WCI   1
HALLOCK        MOSUNNY   16   9  73 SE10      29.91F WCI   3
ROSEAU         PTSUNNY   14   7  73 E8        29.92F WCI   3
WARROAD        SUNNY     12   5  73 E8        29.92F WCI   1
THIEF RVR FALL PTSUNNY   12   9  85 E8        29.89F WCI   1
CROOKSTON      LGT SNOW  14   9  79 SE5       29.91F WCI   6
FOSSTON        CLOUDY    12   7  79 E3        29.87F
DETROIT LAKES  FLURRIES  14  10  85 SE8       29.85F WCI   3
MOORHEAD       CLOUDY    16  10  79 E6        29.88F WCI   7
PARK RAPIDS    CLOUDY    12   6  77 SE7       29.86F WCI   1
MAHNOMEN       CLOUDY    14   6  73 SE5       29.86F WCI   6
$$
MNZ006-009>011-018-025>026-281900-
   North Central Minnesota

CITY           SKY/WX    TMP DP  RH WIND       PRES   REMARKS
BAUDETTE       CLOUDY    11   4  73 E7        29.91F WCI   0
FLAG ISLAND    MOSUNNY    9   0  66 E5        29.94F WCI   0
INTL FALLS     LGT SNOW  13   5  70 E5        29.95F WCI   5
6HR MIN TEMP:   5; 6HR MAX TEMP:  13; 6HR PCP: TRACE;

WASKISH        CLOUDY    14   9  79 CALM      29.91F
BIG FORK       PTSUNNY   14   7  73 S6        29.91F WCI   5
LONGVILLE      FLURRIES  12   7  79 SE3       29.89F
GRAND RAPIDS   CLOUDY    10   5  79 S3        29.91R
CRANE LAKE     CLOUDY    12   7  79 CALM      29.97F
ORR            CLOUDY    12   5  73 CALM      29.91F
COOK           LGT SNOW  12   7  79 CALM      29.93F
WALKER         LGT SNOW  12   6  77 SE6       29.88F WCI   2
$$
MNZ012-019>021-037-281900-
   Northeast Minnesota

CITY           SKY/WX    TMP DP  RH WIND       PRES   REMARKS
DULUTH         LGT SNOW  12   7  80 SE7       29.92F WCI   1
6HR MIN TEMP:   8; 6HR MAX TEMP:  12; 6HR PCP:  0.01;

ELY            FLURRIES  14   9  79 SE7       29.92F WCI   4
HIBBING        CLOUDY    13   6  74 SE7       29.92F WCI   3
EVELETH        LGT SNOW  16  10  79 SE6       29.92F WCI   7
DULUTH HARBOR  FLURRIES  16  10  79 CALM      30.00F
TWO HARBORS    LGT SNOW  19  16  86 SE3       29.95F
SILVER BAY     LGT SNOW  18  16  93 E3        29.95F
GRAND MARAIS     N/A     22  11  62 MISG      30.03F
G MARAIS ARPRT CLOUDY    16   7  67 SE5       29.93F WCI   9
$$
MNZ029>031-032-039>041-046>048-054>057-064-281900-
   West Central Minnesota

CITY           SKY/WX    TMP DP  RH WIND       PRES   REMARKS
FERGUS FALLS   PTSUNNY   16   7  67 SE9       29.89F WCI   4
WHEATON        PTSUNNY   14   9  79 E10       29.87S WCI   1
MORRIS         CLOUDY    16  10  79 E12G17    29.82F WCI   3
ALEXANDRIA     MIX PCPN  12   8  84 E10       29.85F FOG     WCI  -1
ELBOW LAKE     LGT SNOW  15  11  83 E10       29.83F WCI   2
WADENA         CLOUDY    10   7  85 E9        29.84F WCI  -2
GLENWOOD       PTSUNNY   16  10  79 E12       29.85F WCI   3
APPLETON       CLOUDY    18  12  79 E9        29.84F HAZE    WCI   6
BENSON         MOSUNNY   18  10  73 SE9       29.84F WCI   6
ORTONVILLE     LGT SNOW  16   9  73 E8        29.83F WCI   5
MADISON        PTSUNNY   19  16  86 E9        29.84F WCI   9
WILLMAR        FAIR      18  10  73 SE12      29.86F WCI   5
$$
MNZ033>034-036-042>043-049>051-058-059-281900-
   Central Minnesota

CITY           SKY/WX    TMP DP  RH WIND       PRES   REMARKS
ST CLOUD       MIX PCPN  17   9  70 SE10      29.87F WCI   5
6HR MIN TEMP:  11; 6HR MAX TEMP:  17;

SAUK CENTRE    LGT SNOW  13   9  83 E8        29.86F WCI   2
PAYNESVILLE    CLOUDY    14   9  81 E10       29.86F WCI   1
AITKIN         MIX PCPN  16   9  73 E3        29.90F
PINE RIVER     FLURRIES  12   7  79 E7        29.92F WCI   2
BRAINERD       CLOUDY    12   7  80 SE6       29.90F WCI   3
STAPLES        CLOUDY    10   7  85 SE7       29.87F WCI   0
LONG PRAIRIE   FLURRIES  12   9  85 E7        29.87F WCI   2
LITTLE FALLS   CLOUDY    14   9  79 SE8       29.90F WCI   3
LITCHFIELD     MOSUNNY   18  12  79 E12       29.87F WCI   5
BUFFALO        CLOUDY    19  12  73 E7        29.92F WCI  10
MAPLE LAKE     CLOUDY    20  13  76 E9        29.90F WCI   9
$$
MNZ037-044-045-052-053-281900-
   East Central Minnesota

CITY           SKY/WX    TMP DP  RH WIND       PRES   REMARKS
PRINCETON      CLOUDY    18  10  73 E7        29.91F WCI   8
MORA             N/A    N/A N/A N/A MISG        N/A
CAMBRIDGE      FLURRIES  18   9  68 SE5       29.93F WCI  11
RUSH CITY      CLOUDY    17  10  76 SE7       29.95F WCI   7
MOOSE LAKE     LGT SNOW  16   9  73 SE5       29.92F WCI   9
HINCKLEY       FLURRIES  18  10  73 SE6       29.94F WCI   9
CLOQUET        FLURRIES  12   9  85 SE6       29.92F WCI   3
MCGREGOR       CLOUDY    14  10  85 SE5       29.92F WCI   6
$$
MNZ071>073-080-081-089-090-097-098-281900-
   Southwest Minnesota

CITY           SKY/WX    TMP DP  RH WIND       PRES   REMARKS
MONTEVIDEO     PTSUNNY   18  14  86 SE10      29.85F WCI   6
GRANITE FALLS  CLOUDY    18  13  81 E8        29.85F WCI   7
CANBY          CLOUDY    18  13  83 SE8       29.82F WCI   7
MARSHALL       CLOUDY    18  12  79 E8        29.81F WCI   7
REDWOOD FALLS  PTSUNNY   19  13  77 SE13      29.84F WCI   6
OLIVIA         PTSUNNY   19  14  79 SE9       29.84F WCI   9
PIPESTONE      PTSUNNY   28  23  80 SE10      29.73F WCI  19
WINDOM           N/A     23  18  80 SE8       29.79F WCI  14
WORTHINGTON    PTSUNNY   25  19  80 SE9       29.78F WCI  15
JACKSON        PTSUNNY   23  18  80 SE9       29.81F WCI  13
TRACY          CLOUDY    23  18  83 SE6       29.80F WCI  15
SLAYTON        PTSUNNY   23  20  88 SE10      29.77F WCI  13
$$
MNZ065>067-074>077-082>085-091>093-281900-
   South Central Minnesota

CITY           SKY/WX    TMP DP  RH WIND       PRES   REMARKS
MANKATO        CLOUDY    19  12  73 SE15      29.85F WCI   5
NEW ULM        CLOUDY    19  16  86 SE9       29.85F WCI   9
ST JAMES       CLOUDY    21  18  86 SE13      29.84F WCI   9
FAIRMONT       CLOUDY    21  16  79 SE12      29.83F WCI   9
GLENCOE        MOSUNNY   20  15  80 E9        29.88F WCI   9
FARIBAULT      PTSUNNY   21  14  73 SE8       29.90F WCI  12
OWATONNA       PTSUNNY   21  14  73 SE9       29.89F WCI  11
WASECA         MIX PCPN  21  14  73 SE9       29.90F WCI  11
ALBERT LEA     CLOUDY    19  16  86 SE12      29.88F WCI   7
$$
MNZ078>079-086>088-094>096-281900-
   Southeast Minnesota

CITY           SKY/WX    TMP DP  RH WIND       PRES   REMARKS
ROCHESTER      MOSUNNY   20  14  77 S13       29.92F WCI   7
6HR MIN TEMP:  13; 6HR MAX TEMP:  20;

RED WING       CLOUDY    25  12  58 S10       29.94F WCI  15
STANTON        CLOUDY    23  14  70 S12       29.89F WCI  11
DODGE CENTER   MOSUNNY   19  16  86 S10       29.90F WCI   8
WINONA         MOSUNNY   28  18  64 S5        29.98F WCI  23
AUSTIN         MIX PCPN  19  16  86 SE8       29.89F WCI   9
PRESTON        PTSUNNY   21  15  78 S13       29.92F WCI   8
$$
ABBREVIATIONS USED IN REMARKS
   TC - TEMPERATURES IN CELSIUS
  WCI - WIND CHILL INDEX
   HX - HEAT INDEX
  VSB - VISIBILITY
$$



USA.gov is the U.S. government's official web portal to all federal, state and local government web resources and services.